Location: Bishop�s Knoyle
(51.0728°N, 2.1714°W)
Time: 04:01:13
(UTC+00:00)

Envisat - Pass Details

Date: 25 September 2021
Orbit: 764 x 766 km, 98.2° (Epoch: 15 October)

Event Time Altitude Azimuth Distance (km) Brightness Sun altitude
Rises 03:56:13 0° 28° (NNE) 3,244 7.1 -19.7°
Reaches altitude 10° 03:59:34 10° 51° (NE) 2,311 6.6 -19.2°
Maximum altitude 04:02:27 15° 86° (E) 1,974 6.1 -18.8°
Drops below altitude 10° 04:05:20 10° 121° (ESE) 2,300 5.9 -18.4°
Sets 04:08:39 0° 144° (SE) 3,220 6.4 -17.9°
